ProjectID,Date,Electric Generation,Electric Utility Import,Facility Electric Load
,YYYY-MM-DD,kW,kW,kW
133,2013-09-01,0.0,,0.0
133,2013-09-02,0.0,,0.0
133,2013-09-03,0.0,,0.0
133,2013-09-04,0.0,,0.0
133,2013-09-05,0.0,,0.0
133,2013-09-06,0.0,,0.0
133,2013-09-07,0.0,,0.0
133,2013-09-08,0.0,,0.0
133,2013-09-09,0.0,,0.0
133,2013-09-10,0.0,,0.0
133,2013-09-11,0.0,,0.0
133,2013-09-12,0.0,,0.0
133,2013-09-13,0.0,,0.0
133,2013-09-14,0.0,,0.0
133,2013-09-15,0.0,,0.0
133,2013-09-16,0.0,,0.0
133,2013-09-17,0.0,,0.0
133,2013-09-18,0.0,,0.0
133,2013-09-19,0.0,,0.0
133,2013-09-20,0.0,,0.0
133,2013-09-21,0.0,,0.0
133,2013-09-22,0.0,,0.0
133,2013-09-23,0.0,,0.0
133,2013-09-24,0.0,,0.0
133,2013-09-25,0.0,,0.0
133,2013-09-26,10.083333333333334,,10.083333333333334
133,2013-09-27,52.333333333333336,,52.333333333333336
133,2013-09-28,51.625,,51.625
133,2013-09-29,45.458333333333336,,45.458333333333336
133,2013-09-30,27.166666666666668,,27.166666666666668
133,2013-10-01,43.0,,43.0
133,2013-10-02,32.666666666666664,,32.666666666666664
133,2013-10-03,29.5,,29.5
133,2013-10-04,12.583333333333334,,12.583333333333334
133,2013-10-05,11.375,,11.375
133,2013-10-06,26.833333333333332,,26.833333333333332
133,2013-10-07,7.875,,7.875
133,2013-10-08,35.583333333333336,,35.583333333333336
133,2013-10-09,39.375,,39.375
133,2013-10-10,42.791666666666664,,42.791666666666664
133,2013-10-11,44.625,,44.625
133,2013-10-12,47.041666666666664,,47.041666666666664
133,2013-10-13,13.958333333333334,,13.958333333333334
133,2013-10-14,33.416666666666664,,33.416666666666664
133,2013-10-15,28.083333333333332,,28.083333333333332
133,2013-10-16,18.166666666666668,,18.166666666666668
133,2013-10-17,14.208333333333334,,14.208333333333334
133,2013-10-18,32.458333333333336,,32.458333333333336
133,2013-10-19,15.583333333333334,,15.583333333333334
133,2013-10-20,21.041666666666668,,21.041666666666668
133,2013-10-21,31.291666666666668,,31.291666666666668
133,2013-10-22,31.583333333333332,,31.583333333333332
133,2013-10-23,16.875,,16.875
133,2013-10-24,33.0,,33.0
133,2013-10-25,29.791666666666668,,29.791666666666668
133,2013-10-26,5.375,,5.375
133,2013-10-27,19.0,,19.0
133,2013-10-28,25.916666666666668,,25.916666666666668
133,2013-10-29,38.916666666666664,,38.916666666666664
133,2013-10-30,34.666666666666664,,34.666666666666664
133,2013-10-31,9.416666666666666,,9.416666666666666
133,2013-11-01,6.958333333333333,,6.958333333333333
133,2013-11-02,5.291666666666667,,5.291666666666667
133,2013-11-03,26.833333333333332,,26.833333333333332
133,2013-11-04,29.125,,29.125
133,2013-11-05,31.875,,31.875
133,2013-11-06,16.541666666666668,,16.541666666666668
133,2013-11-07,11.0,,11.0
133,2013-11-08,17.041666666666668,,17.041666666666668
133,2013-11-09,15.625,,15.625
133,2013-11-10,9.916666666666666,,9.916666666666666
133,2013-11-11,5.083333333333333,,5.083333333333333
133,2013-11-12,1.7083333333333333,,1.7083333333333333
133,2013-11-13,17.708333333333332,,17.708333333333332
133,2013-11-14,31.5,,31.5
133,2013-11-15,26.875,,26.875
133,2013-11-16,30.666666666666668,,30.666666666666668
133,2013-11-17,6.625,,6.625
133,2013-11-18,3.9166666666666665,,3.9166666666666665
133,2013-11-19,12.291666666666666,,12.291666666666666
133,2013-11-20,32.291666666666664,,32.291666666666664
133,2013-11-21,7.791666666666667,,7.791666666666667
133,2013-11-22,1.2916666666666667,,1.2916666666666667
133,2013-11-23,14.625,,14.625
133,2013-11-24,13.458333333333334,,13.458333333333334
133,2013-11-25,19.875,,19.875
133,2013-11-26,2.8333333333333335,,2.8333333333333335
133,2013-11-27,0.0,,0.0
133,2013-11-28,0.0,,0.0
133,2013-11-29,0.0,,0.0
133,2013-11-30,0.0,,0.0
133,2013-12-01,0.0,,0.0
133,2013-12-02,0.041666666666666664,,0.041666666666666664
133,2013-12-03,8.958333333333334,,8.958333333333334
133,2013-12-04,21.416666666666668,,21.416666666666668
133,2013-12-05,5.25,,5.25
133,2013-12-06,1.125,,1.125
133,2013-12-07,0.0,,0.0
133,2013-12-08,9.958333333333334,,9.958333333333334
133,2013-12-09,0.5416666666666666,,0.5416666666666666
133,2013-12-10,12.625,,12.625
133,2013-12-11,6.458333333333333,,6.458333333333333
133,2013-12-12,11.291666666666666,,11.291666666666666
133,2013-12-13,3.25,,3.25
133,2013-12-14,0.3333333333333333,,0.3333333333333333
133,2013-12-15,0.0,,0.0
133,2013-12-16,16.375,,16.375
133,2013-12-17,0.4166666666666667,,0.4166666666666667
133,2013-12-18,1.8333333333333333,,1.8333333333333333
133,2013-12-19,15.416666666666666,,15.416666666666666
133,2013-12-20,1.3333333333333333,,1.3333333333333333
133,2013-12-21,1.5833333333333333,,1.5833333333333333
133,2013-12-22,2.5833333333333335,,2.5833333333333335
133,2013-12-23,3.5833333333333335,,3.5833333333333335
133,2013-12-24,0.25,,0.25
133,2013-12-25,0.20833333333333334,,0.20833333333333334
133,2013-12-26,0.0,,0.0
133,2013-12-27,0.0,,0.0
133,2013-12-28,17.0,,17.0
133,2013-12-29,3.0416666666666665,,3.0416666666666665
133,2013-12-30,3.1666666666666665,,3.1666666666666665
133,2013-12-31,7.375,,7.375
133,2014-01-01,14.333333333333334,,14.333333333333334
133,2014-01-02,2.0,,2.0
133,2014-01-03,5.833333333333333,,5.833333333333333
133,2014-01-04,26.166666666666668,,26.166666666666668
133,2014-01-05,8.083333333333334,,8.083333333333334
133,2014-01-06,7.25,,7.25
133,2014-01-07,5.833333333333333,,5.833333333333333
133,2014-01-08,0.20833333333333334,,0.20833333333333334
133,2014-01-09,1.6666666666666667,,1.6666666666666667
133,2014-01-10,0.9166666666666666,,0.9166666666666666
133,2014-01-11,2.4583333333333335,,2.4583333333333335
133,2014-01-12,2.3333333333333335,,2.3333333333333335
133,2014-01-13,17.375,,17.375
133,2014-01-14,7.0,,7.0
133,2014-01-15,12.833333333333334,,12.833333333333334
133,2014-01-16,19.541666666666668,,19.541666666666668
133,2014-01-17,23.875,,23.875
133,2014-01-18,11.041666666666666,,11.041666666666666
133,2014-01-19,3.875,,3.875
133,2014-01-20,0.25,,0.25
133,2014-01-21,0.6666666666666666,,0.6666666666666666
133,2014-01-22,0.7083333333333334,,0.7083333333333334
133,2014-01-23,0.4583333333333333,,0.4583333333333333
133,2014-01-24,11.875,,11.875
133,2014-01-25,7.625,,7.625
133,2014-01-26,5.583333333333333,,5.583333333333333
133,2014-01-27,29.125,,29.125
133,2014-01-28,25.708333333333332,,25.708333333333332
133,2014-01-29,15.125,,15.125
133,2014-01-30,34.458333333333336,,34.458333333333336
133,2014-01-31,8.75,,8.75
133,2014-02-01,7.583333333333333,,7.583333333333333
133,2014-02-02,0.08333333333333333,,0.08333333333333333
133,2014-02-03,0.75,,0.75
133,2014-02-04,1.9166666666666667,,1.9166666666666667
133,2014-02-05,0.25,,0.25
133,2014-02-06,1.8333333333333333,,1.8333333333333333
133,2014-02-07,8.875,,8.875
133,2014-02-08,8.041666666666666,,8.041666666666666
133,2014-02-09,0.875,,0.875
133,2014-02-10,0.4583333333333333,,0.4583333333333333
133,2014-02-11,0.2916666666666667,,0.2916666666666667
133,2014-02-12,1.5833333333333333,,1.5833333333333333
133,2014-02-13,0.5833333333333334,,0.5833333333333334
133,2014-02-14,1.75,,1.75
133,2014-02-15,14.875,,14.875
133,2014-02-16,4.958333333333333,,4.958333333333333
133,2014-02-17,22.791666666666668,,22.791666666666668
133,2014-02-18,17.25,,17.25
133,2014-02-19,34.333333333333336,,34.333333333333336
133,2014-02-20,12.583333333333334,,12.583333333333334
133,2014-02-21,11.625,,11.625
133,2014-02-22,40.041666666666664,,40.041666666666664
133,2014-02-23,49.791666666666664,,49.791666666666664
133,2014-02-24,22.916666666666668,,22.916666666666668
133,2014-02-25,26.083333333333332,,26.083333333333332
133,2014-02-26,43.5,,43.5
133,2014-02-27,18.375,,18.375
133,2014-02-28,54.416666666666664,,54.416666666666664
133,2014-03-01,29.208333333333332,,29.208333333333332
133,2014-03-02,0.6666666666666666,,0.6666666666666666
133,2014-03-03,1.6666666666666667,,1.6666666666666667
133,2014-03-04,0.6666666666666666,,0.6666666666666666
133,2014-03-05,0.625,,0.625
133,2014-03-06,8.083333333333334,,8.083333333333334
133,2014-03-07,50.458333333333336,,50.458333333333336
133,2014-03-08,9.041666666666666,,9.041666666666666
133,2014-03-09,44.666666666666664,,44.666666666666664
133,2014-03-10,29.375,,29.375
133,2014-03-11,44.083333333333336,,44.083333333333336
133,2014-03-12,1.0,,1.0
133,2014-03-13,8.125,,8.125
133,2014-03-14,48.083333333333336,,48.083333333333336
133,2014-03-15,18.125,,18.125
133,2014-03-16,54.166666666666664,,54.166666666666664
133,2014-03-17,58.791666666666664,,58.791666666666664
133,2014-03-18,58.0,,58.0
133,2014-03-19,17.791666666666668,,17.791666666666668
133,2014-03-20,5.541666666666667,,5.541666666666667
133,2014-03-21,50.0,,50.0
133,2014-03-22,14.208333333333334,,14.208333333333334
133,2014-03-23,34.833333333333336,,34.833333333333336
133,2014-03-24,36.5,,36.5
133,2014-03-25,56.875,,56.875
133,2014-03-26,37.083333333333336,,37.083333333333336
133,2014-03-27,29.291666666666668,,29.291666666666668
133,2014-03-28,6.583333333333333,,6.583333333333333
133,2014-03-29,11.083333333333334,,11.083333333333334
133,2014-03-30,24.5,,24.5
133,2014-03-31,64.16666666666667,,64.16666666666667
133,2014-04-01,38.083333333333336,,38.083333333333336
133,2014-04-02,67.375,,67.375
133,2014-04-03,37.166666666666664,,37.166666666666664
133,2014-04-04,9.25,,9.25
133,2014-04-05,26.291666666666668,,26.291666666666668
133,2014-04-06,65.45833333333333,,65.45833333333333
133,2014-04-07,16.041666666666668,,16.041666666666668
133,2014-04-08,22.208333333333332,,22.208333333333332
133,2014-04-09,66.375,,66.375
133,2014-04-10,59.208333333333336,,59.208333333333336
133,2014-04-11,49.416666666666664,,49.416666666666664
133,2014-04-12,57.041666666666664,,57.041666666666664
133,2014-04-13,47.25,,47.25
133,2014-04-14,23.541666666666668,,23.541666666666668
133,2014-04-15,1.2916666666666667,,1.2916666666666667
133,2014-04-16,52.083333333333336,,52.083333333333336
133,2014-04-17,67.125,,67.125
133,2014-04-18,54.041666666666664,,54.041666666666664
133,2014-04-19,70.41666666666667,,70.41666666666667
133,2014-04-20,67.16666666666667,,67.16666666666667
133,2014-04-21,54.541666666666664,,54.541666666666664
133,2014-04-22,11.916666666666666,,11.916666666666666
133,2014-04-23,27.125,,27.125
133,2014-04-24,73.75,,73.75
133,2014-04-25,37.041666666666664,,37.041666666666664
133,2014-04-26,13.041666666666666,,13.041666666666666
133,2014-04-27,57.916666666666664,,57.916666666666664
133,2014-04-28,63.416666666666664,,63.416666666666664
133,2014-04-29,12.5,,12.5
133,2014-04-30,12.166666666666666,,12.166666666666666
133,2014-05-01,52.125,,52.125
133,2014-05-02,30.083333333333332,,30.083333333333332
133,2014-05-03,31.833333333333332,,31.833333333333332
133,2014-05-04,62.416666666666664,,62.416666666666664
133,2014-05-05,57.125,,57.125
133,2014-05-06,72.95833333333333,,72.95833333333333
133,2014-05-07,53.791666666666664,,53.791666666666664
133,2014-05-08,54.0,,54.0
133,2014-05-09,46.5,,46.5
133,2014-05-10,56.041666666666664,,56.041666666666664
133,2014-05-11,71.875,,71.875
133,2014-05-12,49.583333333333336,,49.583333333333336
133,2014-05-13,52.583333333333336,,52.583333333333336
133,2014-05-14,49.208333333333336,,49.208333333333336
133,2014-05-15,22.0,,22.0
133,2014-05-16,28.125,,28.125
133,2014-05-17,67.58333333333333,,67.58333333333333
133,2014-05-18,67.66666666666667,,67.66666666666667
133,2014-05-19,59.333333333333336,,59.333333333333336
133,2014-05-20,38.625,,38.625
133,2014-05-21,39.875,,39.875
133,2014-05-22,40.833333333333336,,40.833333333333336
133,2014-05-23,31.208333333333332,,31.208333333333332
133,2014-05-24,74.0,,74.0
133,2014-05-25,72.66666666666667,,72.66666666666667
133,2014-05-26,66.16666666666667,,66.16666666666667
133,2014-05-27,54.375,,54.375
133,2014-05-28,48.916666666666664,,48.916666666666664
133,2014-05-29,42.708333333333336,,42.708333333333336
133,2014-05-30,57.25,,57.25
133,2014-05-31,75.25,,75.25
133,2014-06-01,68.0,,68.0
133,2014-06-02,62.208333333333336,,62.208333333333336
133,2014-06-03,40.458333333333336,,40.458333333333336
133,2014-06-04,48.583333333333336,,48.583333333333336
133,2014-06-05,36.25,,36.25
133,2014-06-06,71.125,,71.125
133,2014-06-07,70.70833333333333,,70.70833333333333
133,2014-06-08,25.75,,25.75
133,2014-06-09,56.333333333333336,,56.333333333333336
133,2014-06-10,48.416666666666664,,48.416666666666664
133,2014-06-11,41.875,,41.875
133,2014-06-12,28.458333333333332,,28.458333333333332
133,2014-06-13,38.083333333333336,,38.083333333333336
133,2014-06-14,44.666666666666664,,44.666666666666664
133,2014-06-15,71.91666666666667,,71.91666666666667
133,2014-06-16,58.041666666666664,,58.041666666666664
133,2014-06-17,57.333333333333336,,57.333333333333336
133,2014-06-18,39.583333333333336,,39.583333333333336
133,2014-06-19,74.875,,74.875
133,2014-06-20,63.666666666666664,,63.666666666666664
133,2014-06-21,69.58333333333333,,69.58333333333333
133,2014-06-22,71.125,,71.125
133,2014-06-23,49.416666666666664,,49.416666666666664
133,2014-06-24,51.416666666666664,,51.416666666666664
133,2014-06-25,24.958333333333332,,24.958333333333332
133,2014-06-26,57.541666666666664,,57.541666666666664
133,2014-06-27,63.125,,63.125
133,2014-06-28,44.916666666666664,,44.916666666666664
133,2014-06-29,44.291666666666664,,44.291666666666664
133,2014-06-30,61.958333333333336,,61.958333333333336
133,2014-07-01,62.416666666666664,,62.416666666666664
133,2014-07-02,55.208333333333336,,55.208333333333336
133,2014-07-03,28.666666666666668,,28.666666666666668
133,2014-07-04,71.79166666666667,,71.79166666666667
133,2014-07-05,74.25,,74.25
133,2014-07-06,70.83333333333333,,70.83333333333333
133,2014-07-07,25.916666666666668,,25.916666666666668
133,2014-07-08,36.125,,36.125
133,2014-07-09,38.625,,38.625
133,2014-07-10,72.20833333333333,,72.20833333333333
133,2014-07-11,67.20833333333333,,67.20833333333333
133,2014-07-12,65.16666666666667,,65.16666666666667
133,2014-07-13,21.958333333333332,,21.958333333333332
133,2014-07-14,47.375,,47.375
133,2014-07-15,60.0,,60.0
133,2014-07-16,59.791666666666664,,59.791666666666664
133,2014-07-17,67.45833333333333,,67.45833333333333
133,2014-07-18,52.625,,52.625
133,2014-07-19,19.958333333333332,,19.958333333333332
133,2014-07-20,37.5,,37.5
133,2014-07-21,60.208333333333336,,60.208333333333336
133,2014-07-22,65.20833333333333,,65.20833333333333
133,2014-07-23,23.333333333333332,,23.333333333333332
133,2014-07-24,70.16666666666667,,70.16666666666667
133,2014-07-25,66.41666666666667,,66.41666666666667
133,2014-07-26,57.666666666666664,,57.666666666666664
133,2014-07-27,56.125,,56.125
133,2014-07-28,11.625,,11.625
133,2014-07-29,34.333333333333336,,34.333333333333336
133,2014-07-30,55.541666666666664,,55.541666666666664
133,2014-07-31,59.833333333333336,,59.833333333333336
133,2014-08-01,62.875,,62.875
133,2014-08-02,51.208333333333336,,51.208333333333336
133,2014-08-03,15.208333333333334,,15.208333333333334
133,2014-08-04,59.041666666666664,,59.041666666666664
133,2014-08-05,28.25,,28.25
133,2014-08-06,52.291666666666664,,52.291666666666664
133,2014-08-07,56.083333333333336,,56.083333333333336
133,2014-08-08,58.541666666666664,,58.541666666666664
133,2014-08-09,61.708333333333336,,61.708333333333336
133,2014-08-10,58.541666666666664,,58.541666666666664
133,2014-08-11,49.416666666666664,,49.416666666666664
133,2014-08-12,25.958333333333332,,25.958333333333332
133,2014-08-13,48.416666666666664,,48.416666666666664
133,2014-08-14,35.958333333333336,,35.958333333333336
133,2014-08-15,45.083333333333336,,45.083333333333336
133,2014-08-16,25.041666666666668,,25.041666666666668
133,2014-08-17,49.916666666666664,,49.916666666666664
133,2014-08-18,64.125,,64.125
133,2014-08-19,61.416666666666664,,61.416666666666664
133,2014-08-20,29.416666666666668,,29.416666666666668
133,2014-08-21,58.5,,58.5
133,2014-08-22,42.625,,42.625
133,2014-08-23,36.833333333333336,,36.833333333333336
133,2014-08-24,54.083333333333336,,54.083333333333336
133,2014-08-25,53.916666666666664,,53.916666666666664
133,2014-08-26,58.0,,58.0
133,2014-08-27,40.166666666666664,,40.166666666666664
133,2014-08-28,58.458333333333336,,58.458333333333336
133,2014-08-29,55.0,,55.0
133,2014-08-30,45.958333333333336,,45.958333333333336
133,2014-08-31,17.958333333333332,,17.958333333333332
133,2014-09-01,44.875,,44.875
133,2014-09-02,15.75,,15.75
133,2014-09-03,57.916666666666664,,57.916666666666664
133,2014-09-04,57.041666666666664,,57.041666666666664
133,2014-09-05,48.166666666666664,,48.166666666666664
133,2014-09-06,21.25,,21.25
133,2014-09-07,59.291666666666664,,59.291666666666664
133,2014-09-08,54.875,,54.875
133,2014-09-09,40.791666666666664,,40.791666666666664
133,2014-09-10,31.291666666666668,,31.291666666666668
133,2014-09-11,16.916666666666668,,16.916666666666668
133,2014-09-12,19.5,,19.5
133,2014-09-13,18.833333333333332,,18.833333333333332
133,2014-09-14,39.541666666666664,,39.541666666666664
133,2014-09-15,36.875,,36.875
133,2014-09-16,50.208333333333336,,50.208333333333336
133,2014-09-17,53.291666666666664,,53.291666666666664
133,2014-09-18,21.791666666666668,,21.791666666666668
133,2014-09-19,56.041666666666664,,56.041666666666664
133,2014-09-20,44.333333333333336,,44.333333333333336
133,2014-09-21,36.291666666666664,,36.291666666666664
133,2014-09-22,16.708333333333332,,16.708333333333332
133,2014-09-23,54.5,,54.5
133,2014-09-24,51.916666666666664,,51.916666666666664
133,2014-09-25,53.541666666666664,,53.541666666666664
133,2014-09-26,51.291666666666664,,51.291666666666664
133,2014-09-27,50.458333333333336,,50.458333333333336
133,2014-09-28,44.166666666666664,,44.166666666666664
133,2014-09-29,49.5,,49.5
133,2014-09-30,36.291666666666664,,36.291666666666664
133,2014-10-01,20.833333333333332,,20.833333333333332
133,2014-10-02,42.583333333333336,,42.583333333333336
133,2014-10-03,35.583333333333336,,35.583333333333336
133,2014-10-04,19.958333333333332,,19.958333333333332
133,2014-10-05,7.708333333333333,,7.708333333333333
133,2014-10-06,24.958333333333332,,24.958333333333332
133,2014-10-07,32.375,,32.375
133,2014-10-08,29.375,,29.375
133,2014-10-09,50.875,,50.875
133,2014-10-10,30.875,,30.875
133,2014-10-11,34.833333333333336,,34.833333333333336
133,2014-10-12,47.708333333333336,,47.708333333333336
133,2014-10-13,21.666666666666668,,21.666666666666668
133,2014-10-14,25.958333333333332,,25.958333333333332
133,2014-10-15,7.041666666666667,,7.041666666666667
133,2014-10-16,23.958333333333332,,23.958333333333332
133,2014-10-17,15.416666666666666,,15.416666666666666
133,2014-10-18,8.875,,8.875
133,2014-10-19,26.75,,26.75
133,2014-10-20,12.833333333333334,,12.833333333333334
133,2014-10-21,9.75,,9.75
133,2014-10-22,8.583333333333334,,8.583333333333334
133,2014-10-23,43.791666666666664,,43.791666666666664
133,2014-10-24,37.458333333333336,,37.458333333333336
133,2014-10-25,24.333333333333332,,24.333333333333332
133,2014-10-26,6.375,,6.375
133,2014-10-27,35.625,,35.625
133,2014-10-28,18.5,,18.5
133,2014-10-29,9.458333333333334,,9.458333333333334
133,2014-10-30,17.125,,17.125
133,2014-10-31,8.708333333333334,,8.708333333333334
133,2014-11-01,4.916666666666667,,4.916666666666667
133,2014-11-02,40.541666666666664,,40.541666666666664
133,2014-11-03,25.875,,25.875
133,2014-11-04,14.333333333333334,,14.333333333333334
133,2014-11-05,25.0,,25.0
133,2014-11-06,3.0416666666666665,,3.0416666666666665
133,2014-11-07,11.208333333333334,,11.208333333333334
133,2014-11-08,10.083333333333334,,10.083333333333334
133,2014-11-09,13.0,,13.0
133,2014-11-10,25.416666666666668,,25.416666666666668
133,2014-11-11,33.208333333333336,,33.208333333333336
133,2014-11-12,8.958333333333334,,8.958333333333334
133,2014-11-13,8.291666666666666,,8.291666666666666
133,2014-11-14,13.208333333333334,,13.208333333333334
133,2014-11-15,10.041666666666666,,10.041666666666666
133,2014-11-16,15.25,,15.25
133,2014-11-17,0.0,,0.0
133,2014-11-18,0.0,,0.0
133,2014-11-19,0.0,,0.0
133,2014-11-20,0.0,,0.0
133,2014-11-21,0.0,,0.0
133,2014-11-22,0.0,,0.0
133,2014-11-23,4.625,,4.625
133,2014-11-24,11.541666666666666,,11.541666666666666
133,2014-11-25,1.625,,1.625
133,2014-11-26,2.2083333333333335,,2.2083333333333335
133,2014-11-27,12.875,,12.875
133,2014-11-28,0.5833333333333334,,0.5833333333333334
133,2014-11-29,5.708333333333333,,5.708333333333333
133,2014-11-30,7.0,,7.0
133,2014-12-01,10.25,,10.25
133,2014-12-02,17.25,,17.25
133,2014-12-03,0.9583333333333334,,0.9583333333333334
133,2014-12-04,22.5,,22.5
133,2014-12-05,8.541666666666666,,8.541666666666666
133,2014-12-06,6.833333333333333,,6.833333333333333
133,2014-12-07,28.791666666666668,,28.791666666666668
133,2014-12-08,11.958333333333334,,11.958333333333334
133,2014-12-09,21.416666666666668,,21.416666666666668
133,2014-12-10,0.6666666666666666,,0.6666666666666666
133,2014-12-11,0.0,,0.0
133,2014-12-12,0.0,,0.0
133,2014-12-13,0.0,,0.0
133,2014-12-14,3.5833333333333335,,3.5833333333333335
133,2014-12-15,5.375,,5.375
133,2014-12-16,2.875,,2.875
133,2014-12-17,3.5416666666666665,,3.5416666666666665
133,2014-12-18,1.8333333333333333,,1.8333333333333333
133,2014-12-19,5.708333333333333,,5.708333333333333
133,2014-12-20,10.583333333333334,,10.583333333333334
133,2014-12-21,15.875,,15.875
133,2014-12-22,21.25,,21.25
133,2014-12-23,7.25,,7.25
133,2014-12-24,5.5,,5.5
133,2014-12-25,6.083333333333333,,6.083333333333333
133,2014-12-26,22.041666666666668,,22.041666666666668
133,2014-12-27,15.208333333333334,,15.208333333333334
133,2014-12-28,6.833333333333333,,6.833333333333333
133,2014-12-29,7.75,,7.75
133,2014-12-30,18.375,,18.375
133,2014-12-31,9.833333333333334,,9.833333333333334
133,2015-01-01,2.375,,2.375
133,2015-01-02,12.416666666666666,,12.416666666666666
133,2015-01-03,2.375,,2.375
133,2015-01-04,3.25,,3.25
133,2015-01-05,29.583333333333332,,29.583333333333332
133,2015-01-06,4.625,,4.625
133,2015-01-07,3.875,,3.875
133,2015-01-08,9.25,,9.25
133,2015-01-09,4.625,,4.625
133,2015-01-10,2.2916666666666665,,2.2916666666666665
133,2015-01-11,11.041666666666666,,11.041666666666666
133,2015-01-12,0.0,,0.0
133,2015-01-13,0.0,,0.0
133,2015-01-14,0.041666666666666664,,0.041666666666666664
133,2015-01-15,0.20833333333333334,,0.20833333333333334
133,2015-01-16,7.541666666666667,,7.541666666666667
133,2015-01-17,10.416666666666666,,10.416666666666666
133,2015-01-18,7.333333333333333,,7.333333333333333
133,2015-01-19,6.833333333333333,,6.833333333333333
133,2015-01-20,15.916666666666666,,15.916666666666666
133,2015-01-21,20.083333333333332,,20.083333333333332
133,2015-01-22,18.875,,18.875
133,2015-01-23,17.125,,17.125
133,2015-01-24,4.833333333333333,,4.833333333333333
133,2015-01-25,22.083333333333332,,22.083333333333332
133,2015-01-26,13.041666666666666,,13.041666666666666
133,2015-01-27,2.0416666666666665,,2.0416666666666665
133,2015-01-28,9.375,,9.375
133,2015-01-29,2.3333333333333335,,2.3333333333333335
133,2015-01-30,0.16666666666666666,,0.16666666666666666
133,2015-01-31,0.4166666666666667,,0.4166666666666667
133,2015-02-01,0.08333333333333333,,0.08333333333333333
133,2015-02-02,0.08333333333333333,,0.08333333333333333
133,2015-02-03,0.2916666666666667,,0.2916666666666667
133,2015-02-04,0.0,,0.0
133,2015-02-05,0.0,,0.0
133,2015-02-06,0.125,,0.125
133,2015-02-07,0.0,,0.0
133,2015-02-08,0.0,,0.0
133,2015-02-09,0.0,,0.0
133,2015-02-10,0.0,,0.0
133,2015-02-11,0.0,,0.0
133,2015-02-12,0.041666666666666664,,0.041666666666666664
133,2015-02-13,0.08333333333333333,,0.08333333333333333
133,2015-02-14,0.0,,0.0
133,2015-02-15,0.08333333333333333,,0.08333333333333333
133,2015-02-16,0.08333333333333333,,0.08333333333333333
133,2015-02-17,0.16666666666666666,,0.16666666666666666
133,2015-02-18,0.041666666666666664,,0.041666666666666664
133,2015-02-19,0.041666666666666664,,0.041666666666666664